RADUGA 32 1 23448U 94087A 10066.46278762 -.00000132 +00000-0 +10000-3 0 02448 2 23448 010.8017 049.3949 0003152 124.9894 235.0837 01.00262385073326 RADUGA 1-4 1 25642U 99010A 10066.58801244 +.00000109 +00000-0 +00000-0 0 03414 2 25642 009.5057 065.2625 0003638 168.9521 191.1389 01.00211778040367 RADUGA 1-5 1 26477U 00049A 10067.61303759 -.00000344 +00000-0 +10000-3 0 07823 2 26477 007.1352 063.8192 0001842 293.1749 134.0431 01.00291522034886 RADUGA 1-6 1 26936U 01045A 10065.02184882 -.00000043 +00000-0 +10000-3 0 09780 2 26936 006.4027 068.7044 0015259 037.8738 322.3791 00.97743373030456 RADUGA 1-7 1 28194U 04010A 10065.58413648 -.00000300 00000-0 10000-3 0 2058 2 28194 004.4705 080.1252 0005924 055.6997 332.9590 01.00397587 21773 RADUGA 1M-1 1 32373U 07058A 10067.91579436 -.00000054 +00000-0 +10000-3 0 06469 2 32373 000.0184 239.2560 0002315 148.4822 178.4140 01.00272217009129